Regional Weather Roundup
Issued by NWS

Home | Current Version | Previous Version | Graphics & Text | Print | Product List | Glossary On
Versions: 1 2 3 4 5 6 7 8 9 10 11 12 13 14 15 16 17 18 19 20 21 22 23 24 25 26 27 28 29 30 31 32 33 34 35 36 37 38 39 40 41 42 43 44 45 46 47 48 49 50
000
ASUS43 KLSX 061507
RWRMO

WEATHER SUMMARY FOR MISSOURI
NATIONAL WEATHER SERVICE SPRINGFIELD MO
900 AM CST FRI MAR 06 2015

NOTE: "FAIR" INDICATES FEW OR NO CLOUDS BELOW 12,000 FEET WITH NO
       SIGNIFICANT WEATHER AND/OR OBSTRUCTIONS TO VISIBILITY.
       CURRENT SKY AND/OR WEATHER CONDITIONS ARE NOT AVAILABLE FOR
       CHILLICOTHE AND FARMINGTON.

MOZ001>031-035>038-043-044-053-054-061600-
...NORTHERN AND WESTERN MISSOURI...

CITY           SKY/WX    TMP DP  RH WIND       PRES   REMARKS
KANSAS CTY INT MOSUNNY   36  21  54 SW18      30.30R WCI  26
KANSAS C DTWN  SUNNY     38  20  48 SW14      30.33R WCI  30
LEE`S SUMMIT   SUNNY     36  20  52 SW17G25   30.33R WCI  26
ST JOSEPH      SUNNY     36  23  59 SW13      30.30R WCI  27
CHILLICOTHE      N/A     32  19  58 SW12G18   30.30S WCI  23
KIRKSVILLE     MOSUNNY   30  17  58 SW17G23   30.28S WCI  18

$$
MOZ066>068-077>081-088>096-101>105-061600-
...SOUTHWEST MISSOURI...

CITY           SKY/WX    TMP DP  RH WIND       PRES   REMARKS
SPRINGFIELD    SUNNY     30  19  63 S16       30.44S WCI  19
JOPLIN         SUNNY     35  20  54 SW16      30.45S WCI  25

$$
MOZ032>034-039>042-045>050-055>058-069>072-061600-
...CENTRAL MISSOURI...

CITY           SKY/WX    TMP DP  RH WIND       PRES   REMARKS
COLUMBIA       SUNNY     30  16  56 S17       30.38F WCI  18
JEFFERSON CITY SUNNY     30  14  51 S10       30.43F WCI  21
ROLLA          SUNNY     27  12  53 S20       30.41F WCI  13
SEDALIA        SUNNY     35  20  54 SW21G30   30.36F WCI  24
WHITEMAN AFB   SUNNY     35  21  57 SW21G28   30.33F WCI  23
WARRENSBURG    SUNNY     36  21  55 S21G26    30.34S WCI  24
OSAGE BEACH    SUNNY     34  19  55 S15       30.42S WCI  24

$$
MOZ051-052-059>065-061600-
...EAST CENTRAL MISSOURI...

CITY           SKY/WX    TMP DP  RH WIND       PRES   REMARKS
ST LOUIS INTL  MOSUNNY   26  10  50 S10       30.49F WCI  16
SPIRIT OF STL  MOSUNNY   24  11  57 SE8       30.47F WCI  15
ST CHARLES     SUNNY     22  13  68 S14       30.48F WCI   9

$$
MOZ072>076-082>087-097>100-106>115-061600-
...SOUTH CENTRAL AND SOUTHEAST MISSOURI...

CITY           SKY/WX    TMP DP  RH WIND       PRES   REMARKS
CAPE GIRARDEAU LGT SNOW   8   7  95 CALM      30.63R FOG
FARMINGTON     SUNNY     19  10  68 SW14      30.54S WCI   6
POPLAR BLUFF   SUNNY     17  13  84 SW5       30.62R WCI  10
WEST PLAINS    SUNNY     22   9  57 S8        30.51S WCI  12

$$



USA.gov is the U.S. government's official web portal to all federal, state and local government web resources and services.